Location: Bosdarros
(43.2167°N, 0.3667°W)
Time: 16:28:44
(UTC+00:00)

Cosmos 2360 Rocket - Pass Details

Date: 22 April 2021
Orbit: 833 x 845 km, 71.0° (Epoch: 13 May)

Event Time Altitude Azimuth Distance (km) Brightness Sun altitude
Rises 19:31:57 0° 324° (NW) 3,408 6.6 -7.5°
Reaches altitude 10° 19:34:46 10° 312° (NW) 2,466 6.1 -7.9°
Maximum altitude 19:39:20 26° 258° (WSW) 1,605 4.3 -8.7°
Drops below altitude 10° 19:43:52 10° 204° (SSW) 2,446 4.6 -9.4°
Sets 19:46:40 0° 191° (SSW) 3,373 5.2 -9.9°
